• In Portugal
  • List of Countries
  • For 7 days
  • Water Temperature
  • Satellite Maps
  • Weather Map
  • Weather Widgets
  • user-avatar
    Login

    Hourly Weather Nashavar

    Today, 16 July, Monday

    Time Temperature Precipitation Wind Pressure Humidity
    00:00 +37°C° 1.5 mm 3 mps 720 mmHg 53%
    01:00 +37°C° 1.5 mm 3 mps 720 mmHg 55%
    02:00 +36°C° 1.5 mm 2 mps 720 mmHg 57%
    03:00 +36°C° 2 mm 2 mps 720 mmHg 59%
    04:00 +35°C° 2 mm 2 mps 720 mmHg 61%
    05:00 +34°C° 0 mm 1 mps 720 mmHg 64%
    06:00 +34°C° 1.3 mm 1 mps 721 mmHg 62%
    07:00 +35°C° 1.3 mm 1 mps 721 mmHg 60%
    08:00 +35°C° 1.3 mm 1 mps 721 mmHg 58%
    09:00 +37°C° 0.5 mm 2 mps 721 mmHg 54%
    10:00 +38°C° 0.5 mm 2 mps 721 mmHg 50%
    11:00 +39°C° 0.5 mm 2 mps 721 mmHg 46%
    12:00 +40°C° 0.1 mm 2 mps 721 mmHg 44%
    13:00 +40°C° 0.1 mm 2 mps 720 mmHg 42%
    14:00 +41°C° 0.1 mm 2 mps 720 mmHg 39%
    15:00 +42°C° 0 mm 3 mps 720 mmHg 38%
    16:00 +43°C° 0 mm 3 mps 719 mmHg 37%
    17:00 +43°C° 0 mm 3 mps 719 mmHg 36%
    18:00 +42°C° 0 mm 3 mps 719 mmHg 38%
    19:00 +41°C° 0 mm 2 mps 719 mmHg 39%
    20:00 +40°C° 0 mm 2 mps 719 mmHg 41%
    21:00 +40°C° 0.6 mm 2 mps 720 mmHg 43%
    22:00 +39°C° 0.6 mm 2 mps 720 mmHg 44%
    23:00 +39°C° 0.6 mm 2 mps 720 mmHg 46%

    Tomorrow, 17 July, Tuesday

    Time Temperature Precipitation Wind Pressure Humidity
    00:00 +38°C° 0.7 mm 2 mps 720 mmHg 49%
    01:00 +36°C° 0.7 mm 1 mps 720 mmHg 51%
    02:00 +36°C° 0.7 mm 1 mps 720 mmHg 54%
    03:00 +35°C° 1 mm 1 mps 720 mmHg 56%
    04:00 +35°C° 1 mm 1 mps 720 mmHg 58%
    05:00 +34°C° 1 mm 1 mps 720 mmHg 60%
    06:00 +35°C° 0.7 mm 2 mps 720 mmHg 59%
    07:00 +36°C° 0.7 mm 2 mps 720 mmHg 58%
    08:00 +36°C° 0.7 mm 2 mps 720 mmHg 57%
    09:00 +37°C° 0 mm 2 mps 720 mmHg 53%
    10:00 +38°C° 0 mm 2 mps 720 mmHg 49%
    11:00 +40°C° 0 mm 2 mps 720 mmHg 45%
    12:00 +40°C° 0 mm 2 mps 720 mmHg 42%
    13:00 +41°C° 0 mm 2 mps 720 mmHg 39%
    14:00 +42°C° 0 mm 2 mps 719 mmHg 36%
    15:00 +43°C° 0 mm 2 mps 719 mmHg 35%
    16:00 +43°C° 0 mm 2 mps 719 mmHg 34%
    17:00 +44°C° 0 mm 3 mps 718 mmHg 33%
    18:00 +44°C° 0.1 mm 3 mps 718 mmHg 35%
    19:00 +43°C° 0.1 mm 3 mps 718 mmHg 37%
    20:00 +42°C° 0.1 mm 3 mps 719 mmHg 39%
    21:00 +40°C° 0.9 mm 3 mps 719 mmHg 42%
    22:00 +40°C° 0.9 mm 3 mps 719 mmHg 45%
    23:00 +39°C° 0.9 mm 3 mps 720 mmHg 48%

    Day after tomorrow, 18 July, Wednesday

    Time Temperature Precipitation Wind Pressure Humidity
    00:00 +38°C° 1.6 mm 3 mps 720 mmHg 51%
    01:00 +37°C° 1.6 mm 2 mps 719 mmHg 55%
    02:00 +36°C° 1.6 mm 2 mps 719 mmHg 59%
    03:00 +35°C° 1.2 mm 2 mps 720 mmHg 61%
    04:00 +35°C° 1.2 mm 2 mps 720 mmHg 63%
    05:00 +34°C° 1.2 mm 2 mps 720 mmHg 66%
    06:00 +35°C° 0.2 mm 2 mps 720 mmHg 64%
    07:00 +34°C° 0.2 mm 1 mps 720 mmHg 62%
    08:00 +35°C° 0.2 mm 1 mps 720 mmHg 60%
    09:00 +37°C° 0.1 mm 2 mps 720 mmHg 56%
    10:00 +38°C° 0.1 mm 2 mps 720 mmHg 51%
    11:00 +39°C° 0.1 mm 3 mps 720 mmHg 47%
    12:00 +40°C° 0 mm 3 mps 720 mmHg 44%
    13:00 +42°C° 0 mm 3 mps 720 mmHg 41%
    14:00 +43°C° 0 mm 3 mps 720 mmHg 38%
    15:00 +43°C° 0 mm 4 mps 719 mmHg 37%
    16:00 +43°C° 0 mm 4 mps 719 mmHg 36%
    17:00 +44°C° 0 mm 4 mps 719 mmHg 36%
    18:00 +43°C° 0.1 mm 4 mps 719 mmHg 39%
    19:00 +41°C° 0.1 mm 5 mps 719 mmHg 43%
    20:00 +40°C° 0.1 mm 5 mps 720 mmHg 47%
    21:00 +38°C° 0.6 mm 4 mps 720 mmHg 51%
    22:00 +37°C° 0.6 mm 3 mps 720 mmHg 55%
    23:00 +35°C° 0.6 mm 1 mps 720 mmHg 59%

    19 July, Thursday

    Time Temperature Precipitation Wind Pressure Humidity
    00:00 +35°C° 0.4 mm 1 mps 720 mmHg 60%
    01:00 +35°C° 0.4 mm 1 mps 720 mmHg 61%
    02:00 +34°C° 0.4 mm 1 mps 719 mmHg 61%
    03:00 +34°C° 0.1 mm 1 mps 719 mmHg 62%
    04:00 +34°C° 0.1 mm 1 mps 719 mmHg 63%
    05:00 +34°C° 0.1 mm 1 mps 719 mmHg 63%
    06:00 +34°C° 0.1 mm 1 mps 719 mmHg 60%
    07:00 +35°C° 0.1 mm 1 mps 720 mmHg 57%
    08:00 +35°C° 0.1 mm 1 mps 720 mmHg 54%
    09:00 +38°C° 0 mm 2 mps 720 mmHg 49%
    10:00 +39°C° 0 mm 2 mps 720 mmHg 45%
    11:00 +40°C° 0 mm 3 mps 720 mmHg 40%
    12:00 +42°C° 0 mm 3 mps 720 mmHg 38%
    13:00 +42°C° 0 mm 3 mps 719 mmHg 36%
    14:00 +43°C° 0 mm 3 mps 719 mmHg 34%
    15:00 +43°C° 0 mm 3 mps 718 mmHg 34%
    16:00 +44°C° 0 mm 3 mps 718 mmHg 34%
    17:00 +44°C° 0 mm 3 mps 718 mmHg 33%
    18:00 +43°C° 0 mm 3 mps 718 mmHg 36%
    19:00 +42°C° 0 mm 3 mps 718 mmHg 38%
    20:00 +42°C° 0 mm 3 mps 719 mmHg 40%
    21:00 +40°C° 0.1 mm 3 mps 719 mmHg 43%
    22:00 +39°C° 0.1 mm 3 mps 719 mmHg 46%
    23:00 +39°C° 0.1 mm 3 mps 719 mmHg 50%

    20 July, Friday

    Time Temperature Precipitation Wind Pressure Humidity
    00:00 +38°C° 0.6 mm 3 mps 719 mmHg 53%
    01:00 +37°C° 0.6 mm 2 mps 719 mmHg 57%
    02:00 +37°C° 0.6 mm 2 mps 719 mmHg 60%
    03:00 +36°C° 0.8 mm 2 mps 719 mmHg 62%
    04:00 +36°C° 0.8 mm 2 mps 718 mmHg 64%
    05:00 +35°C° 0.8 mm 2 mps 718 mmHg 66%
    06:00 +35°C° 0.6 mm 2 mps 719 mmHg 64%
    07:00 +36°C° 0.6 mm 2 mps 719 mmHg 62%
    08:00 +36°C° 0.6 mm 2 mps 719 mmHg 59%
    09:00 +37°C° 0.1 mm 2 mps 719 mmHg 54%
    10:00 +39°C° 0.1 mm 2 mps 719 mmHg 48%
    11:00 +40°C° 0.1 mm 2 mps 718 mmHg 42%
    12:00 +41°C° 0 mm 2 mps 718 mmHg 39%
    13:00 +42°C° 0 mm 2 mps 718 mmHg 35%
    14:00 +43°C° 0 mm 2 mps 717 mmHg 32%
    15:00 +43°C° 0 mm 2 mps 717 mmHg 32%
    16:00 +44°C° 0 mm 3 mps 717 mmHg 32%
    17:00 +44°C° 0 mm 3 mps 717 mmHg 31%
    18:00 +44°C° 0 mm 3 mps 717 mmHg 34%
    19:00 +43°C° 0 mm 3 mps 717 mmHg 36%
    20:00 +42°C° 0 mm 3 mps 718 mmHg 39%
    21:00 +41°C° 0.5 mm 4 mps 718 mmHg 44%
    22:00 +40°C° 0.5 mm 4 mps 718 mmHg 49%
    23:00 +38°C° 0.5 mm 4 mps 719 mmHg 53%

    21 July, Saturday

    Time Temperature Precipitation Wind Pressure Humidity
    00:00 +37°C° 1.3 mm 3 mps 719 mmHg 57%
    01:00 +37°C° 1.3 mm 3 mps 718 mmHg 61%
    02:00 +36°C° 1.3 mm 2 mps 718 mmHg 64%
    03:00 +35°C° 0.5 mm 2 mps 718 mmHg 65%
    04:00 +35°C° 0.5 mm 2 mps 718 mmHg 66%
    05:00 +35°C° 0.5 mm 2 mps 718 mmHg 67%
    06:00 +35°C° 0.5 mm 2 mps 718 mmHg 65%
    07:00 +35°C° 0.5 mm 1 mps 719 mmHg 62%
    08:00 +35°C° 0.5 mm 1 mps 719 mmHg 59%
    09:00 +37°C° 0.1 mm 2 mps 719 mmHg 54%
    10:00 +38°C° 0.1 mm 2 mps 719 mmHg 49%
    11:00 +39°C° 0.1 mm 2 mps 719 mmHg 44%
    12:00 +40°C° 0 mm 2 mps 718 mmHg 41%
    13:00 +41°C° 0 mm 2 mps 718 mmHg 37%
    14:00 +42°C° 0 mm 2 mps 717 mmHg 34%
    15:00 +43°C° 0 mm 2 mps 717 mmHg 34%
    16:00 +44°C° 0 mm 3 mps 717 mmHg 33%
    17:00 +44°C° 0 mm 3 mps 717 mmHg 33%
    18:00 +44°C° 0 mm 3 mps 717 mmHg 36%
    19:00 +43°C° 0 mm 4 mps 718 mmHg 39%
    20:00 +42°C° 0 mm 5 mps 718 mmHg 41%
    21:00 +41°C° 0.6 mm 4 mps 718 mmHg 45%
    22:00 +40°C° 0.6 mm 4 mps 719 mmHg 49%
    23:00 +38°C° 0.6 mm 4 mps 719 mmHg 53%
    Show more